TimeCST,TemperatureF,Dew PointF,Humidity,Sea Level PressureIn,VisibilityMPH,Wind Direction,Wind SpeedMPH,Gust SpeedMPH,PrecipitationIn,Events,Conditions,WindDirDegrees,DateUTC
12:53 AM,17.1,10.9,77,30.29,10.0,NNW,8.1,-,N/A,,Clear,330,2013-12-31 06:53:00
1:53 AM,15.1,10.0,80,30.29,10.0,NNW,3.5,-,N/A,,Clear,340,2013-12-31 07:53:00
2:53 AM,10.0,6.1,84,30.31,10.0,NW,6.9,-,N/A,,Clear,320,2013-12-31 08:53:00
3:53 AM,8.1,3.9,83,30.32,10.0,West,4.6,-,N/A,,Clear,260,2013-12-31 09:53:00
4:53 AM,10.0,6.1,84,30.32,10.0,West,6.9,-,N/A,,Mostly Cloudy,260,2013-12-31 10:53:00
5:53 AM,9.0,5.0,84,30.35,10.0,NW,4.6,-,N/A,,Clear,310,2013-12-31 11:53:00
6:53 AM,10.0,6.1,84,30.34,10.0,Calm,Calm,-,N/A,,Clear,0,2013-12-31 12:53:00
7:53 AM,9.0,6.1,88,30.32,10.0,East,4.6,-,N/A,,Clear,100,2013-12-31 13:53:00
8:53 AM,12.0,7.0,80,30.30,10.0,ESE,5.8,-,N/A,,Overcast,110,2013-12-31 14:53:00
9:53 AM,14.0,8.1,77,30.29,10.0,East,8.1,-,N/A,,Overcast,80,2013-12-31 15:53:00
10:53 AM,19.0,12.0,74,30.27,10.0,Variable,5.8,-,N/A,,Clear,0,2013-12-31 16:53:00
11:53 AM,23.0,14.0,68,30.20,10.0,SE,9.2,-,N/A,,Clear,140,2013-12-31 17:53:00
12:53 PM,28.0,18.0,66,30.17,10.0,SSE,10.4,-,N/A,,Clear,150,2013-12-31 18:53:00
1:53 PM,30.0,19.9,66,30.12,10.0,SE,6.9,-,N/A,,Clear,140,2013-12-31 19:53:00
2:53 PM,33.1,21.0,61,30.08,10.0,SE,8.1,-,N/A,,Clear,130,2013-12-31 20:53:00
3:53 PM,35.1,21.9,59,30.10,10.0,NE,6.9,-,N/A,,Clear,50,2013-12-31 21:53:00
4:53 PM,30.9,21.9,69,30.12,10.0,NE,11.5,-,N/A,,Clear,40,2013-12-31 22:53:00
5:53 PM,19.9,12.9,74,30.16,10.0,NNE,17.3,26.5,N/A,,Clear,30,2013-12-31 23:53:00
6:53 PM,14.0,9.0,80,30.19,10.0,NE,19.6,-,N/A,,Clear,40,2014-01-01 00:53:00
7:53 PM,12.0,7.0,80,30.20,10.0,NE,19.6,-,N/A,,Clear,50,2014-01-01 01:53:00
8:53 PM,12.9,8.1,81,30.20,10.0,NE,16.1,-,N/A,,Clear,50,2014-01-01 02:53:00
9:53 PM,12.9,8.1,81,30.19,10.0,NE,16.1,-,N/A,,Clear,50,2014-01-01 03:53:00
10:53 PM,12.9,8.1,81,30.20,10.0,NE,17.3,-,N/A,,Mostly Cloudy,50,2014-01-01 04:53:00
11:53 PM,12.0,7.0,80,30.17,10.0,NE,13.8,-,N/A,,Clear,50,2014-01-01 05:53:00